Regional Weather Roundup
Issued by NWS

Home | Current Version | Previous Version | Text Only | Print | Product List | Glossary On
Versions: 1 2 3 4 5 6 7 8 9 10 11 12 13 14 15 16 17 18 19 20 21 22 23 24 25 26 27
000
ASUS44 KJAN 291310
RWRMS

MISSISSIPPI HOURLY WEATHER ROUNDUP
NATIONAL WEATHER SERVICE JACKSON MS
800 AM CDT WED MAR 29 2017

NOTE: "FAIR: INDICATES FEW OR NO CLOUDS BELOW 12,000 FEET WITH NO
SIGNIFICANT WEATHER AND/OR OBSTRUCTIONS TO VISIBILITY.

MSZ001>002-007>008-010>013-018>021-025>028-034>036-291400-
NORTHWEST MISSISSIPPI

CITY           SKY/WX    TMP DP  RH WIND       PRES   REMARKS
BATESVILLE     FAIR      61  58  88 CALM      29.94R
CLEVELAND      FAIR      67  67 100 S13G20    29.97R
GREENWOOD      MOSUNNY   67  65  93 S8        29.92R
GREENVILLE     CLOUDY    66  63  90 S8        29.96R FOG
OLIVE BRANCH   PTSUNNY  N/A N/A N/A SE7       29.94R
OXFORD         FAIR      63  55  77 SE8       29.96R
TUNICA         MOSUNNY   63  57  82 SE5       29.95R
WINONA         PTSUNNY   63  63 100 SE3       29.94R FOG
$$

MSZ003>006-009-014>017-022>024-029>033-037>039-291400-
NORTHEAST MISSISSIPPI

CITY           SKY/WX    TMP DP  RH WIND       PRES   REMARKS
COLUMBUS AFB   MOSUNNY   65  64  97 SE6       29.97R
CORINTH        FAIR      61  54  77 SE7       29.96F
GOLDN TRIANGLE PTSUNNY   64  57  77 S7        29.94R
STARKVILLE     CLOUDY    63  63 100 CALM      29.99R FOG
TUPELO         SUNNY     62  56  80 NE3       29.96S
$$

MSZ040-058-291400-
CENTRAL MISSISSIPPI

CITY           SKY/WX    TMP DP  RH WIND       PRES   REMARKS
JACKSON INTL   SUNNY     67  65  93 SE3       29.93R
JACKSON HAWKNS MOSUNNY   68  65  90 SE6       29.94R
MADISON        CLOUDY    64  63  94 CALM      29.93S
MERIDIAN KEY   SUNNY     67  66  97 S3        29.97R
MERIDIAN NAS   PTSUNNY   69  63  81 CALM      29.98R
RAYMOND        FAIR      68  66  94 E8        29.92S FOG
VICKSBURG VKS  SUNNY     66  64  94 CALM      29.96R
$$

MSZ059>079-291400-
SOUTH MISSISSIPPI

CITY           SKY/WX    TMP DP  RH WIND       PRES   REMARKS
HATTIESBURG    CLOUDY    68  66  93 S5        29.96R
MCCOMB         MOSUNNY   68  64  87 SE9       29.93S
NATCHEZ        NOT AVBL
PINE BELT      CLOUDY    68  64  88 SE9       29.96R
$$

MSZ080>082-291400-
COASTAL MISSISSIPPI

CITY           SKY/WX    TMP DP  RH WIND       PRES   REMARKS
BAY ST LOUIS   MOSUNNY   70  63  78 SE9G16    29.92R
BILOXI           N/A    N/A N/A N/A S12       29.94R
PASCAGOULA     CLOUDY    68  65  90 SE8       29.95S
GULFPORT       CLOUDY    72  67  84 SE16      29.93R
$$

LAZ007>009-015>016-023>026-291400-
NORTHEAST LOUISIANA

CITY           SKY/WX    TMP DP  RH WIND       PRES   REMARKS
BASTROP        FAIR      66  66  99 S3        29.97R FOG
TALLULAH/VBURG MOSUNNY   66  64  93 CALM      29.99R FOG
VIDALIA        FAIR      66  65  96 CALM      29.97R
$$




USA.gov is the U.S. government's official web portal to all federal, state and local government web resources and services.